User: anonymous   Login
Location: Unspecified
(0.0000°N, 0.0000°E)
Time: 00:30:17
(UTC+01:00)
Language:

Cosmos 1092 Rocket - Orbit

View from above orbital plane
View from above orbital plane
View from above satellite
View from above satellite

Ground track
Ground track

The orbit data is extracted from the following two-line orbital elements,

1 11327U 79030B   17345.96539743 -.00000062 +00000-0 -77985-4 0  9999
2 11327 082.9482 163.8645 0028470 043.7538 064.5881 13.76968835943399
Epoch (UTC): 11 December 2017 23:10:10
Eccentricity: 0.0028470
inclination: 82.9482°
perigee height: 954 km
apogee height: 995 km
right ascension of ascending node: 163.8645°
argument of perigee: 43.7538°
revolutions per day: 13.76968835
mean anomaly at epoch: 64.5881°
orbit number at epoch: 94339

The dashed part of the orbit path shows where the satellite is in the earth's shadow,  

DLR